Theta_e
323 323 328 323 309 309 303 303 307 304 303 302 304 306 306 301 302 304 308 309 309 309 310 313 319 321 322 322 323 323 324 324 325 325 325 326 326 325 326 325 325 325 326 327 328 329 330 332 335
320 319 325 318 306 300 302 306 304 304 303 303 303 303 302 299 302 303 306 308 308 309 310 313 317 319 320 321 321 321 322 322 323 323 324 325 324 324 324 324 324 324 325 326 327 327 327 327 328
318 313 316 312 305 300 302 305 304 302 303 303 301 302 301 299 302 303 307 307 308 308 309 311 316 318 319 320 320 320 320 321 322 322 323 323 322 322 322 322 321 322 323 325 326 326 326 326 325
317 314 311 306 299 300 304 307 303 302 303 303 303 299 301 303 303 305 307 307 307 308 309 310 314 316 317 318 318 319 320 320 320 320 320 320 320 319 319 319 319 320 321 322 322 323 322 322 322
317 313 306 302 299 301 305 305 305 303 304 303 303 299 299 302 305 305 306 306 306 307 309 309 311 313 315 316 317 317 318 319 319 318 318 318 318 318 319 318 320 321 320 320 320 320 320 319 320
312 311 303 300 299 301 306 305 305 304 303 301 302 300 299 304 304 304 305 306 307 307 308 309 309 310 312 313 314 316 316 316 316 316 316 316 315 316 317 317 319 320 320 320 320 319 318 319 319
309 308 300 299 299 301 304 306 305 305 303 302 303 299 300 301 304 305 305 306 307 308 308 309 310 309 309 310 311 312 314 313 313 313 313 312 312 313 314 314 317 319 319 319 319 319 319 320 319
308 307 298 298 298 299 302 304 303 304 301 301 301 300 298 303 304 305 305 306 306 307 308 308 309 310 310 311 308 309 310 311 310 310 309 310 311 312 312 312 315 317 317 318 319 320 320 321 320
305 304 299 298 297 298 299 302 300 300 300 300 300 300 300 303 303 303 304 303 305 306 307 308 308 309 310 310 309 309 308 308 309 309 308 312 312 311 311 310 312 314 315 317 319 320 319 317 319
306 303 300 299 300 299 298 300 300 299 298 298 298 299 300 301 302 302 302 302 303 304 306 307 308 308 309 309 310 310 309 309 308 307 308 309 310 308 309 310 309 311 311 313 316 318 317 316 319
300 302 298 297 297 297 298 297 300 299 298 302 300 300 300 301 301 301 301 302 302 303 305 306 307 308 309 308 309 308 308 307 306 305 305 306 307 307 307 308 309 310 309 311 311 314 315 315 319
300 295 296 296 296 296 296 298 297 299 301 299 301 302 300 300 300 300 300 301 302 303 304 305 307 307 307 307 306 305 304 304 303 302 302 303 303 303 303 303 305 307 307 307 310 312 314 316 318
299 295 295 295 295 295 296 296 298 297 300 298 298 299 300 300 300 301 301 302 302 302 303 305 306 306 305 304 304 303 301 300 300 299 299 299 299 300 300 300 301 302 304 306 308 309 311 315 317
295 295 294 294 295 295 294 295 295 296 296 297 298 299 299 299 300 300 301 301 301 302 303 304 304 304 303 301 301 300 299 298 298 298 297 298 298 298 298 298 298 298 300 303 305 306 310 311 311
295 294 294 294 294 293 294 293 293 295 296 296 297 298 298 299 299 300 301 301 302 302 303 303 303 302 300 299 298 298 297 297 296 296 296 296 296 296 296 296 295 296 298 300 302 304 310 307 310
293 293 292 291 293 293 293 292 291 293 295 296 297 297 297 298 299 300 301 302 301 302 302 303 301 299 298 297 297 296 296 295 295 294 295 295 295 295 295 295 294 295 296 298 299 300 306 306 307
291 290 290 288 292 292 291 292 290 293 294 296 297 297 297 298 299 300 301 302 301 302 302 302 301 298 297 296 296 295 295 294 294 294 293 294 294 294 294 294 294 295 295 295 297 297 300 303 305
288 288 286 288 290 290 289 291 293 293 293 295 297 297 297 297 298 300 301 301 300 300 301 302 301 299 298 298 297 295 294 293 293 292 292 293 293 293 294 294 293 294 293 294 295 296 297 297 299
290 288 287 287 289 289 290 290 293 295 292 293 295 296 297 297 299 300 301 301 300 298 299 300 300 299 300 300 299 295 292 292 292 292 291 292 292 292 292 293 292 293 292 292 293 295 294 294 296
288 287 286 288 289 289 288 289 294 295 293 294 296 296 296 297 297 298 299 300 299 298 298 298 298 298 299 299 297 296 293 291 291 291 291 291 291 291 291 291 291 292 292 291 292 292 293 293 294
288 289 287 287 288 288 287 289 291 294 292 293 294 296 297 297 296 297 298 299 299 297 297 297 296 296 296 295 294 293 292 292 291 289 289 289 290 290 291 291 291 291 291 290 290 291 291 290 292
286 289 288 288 288 286 288 287 289 292 295 294 295 295 296 296 296 298 298 299 299 298 297 296 295 295 294 295 294 292 291 289 289 289 289 289 289 289 290 290 290 290 290 290 289 290 290 291 289
287 290 289 288 288 287 285 286 290 292 293 294 295 296 295 295 296 297 298 299 299 297 296 295 295 294 293 292 292 291 289 289 289 288 288 288 288 289 289 289 289 289 290 289 289 289 289 289 288
291 290 289 289 288 283 285 286 293 292 290 294 296 296 294 292 295 297 299 299 297 296 295 295 294 292 292 291 291 290 289 288 287 287 288 287 288 288 288 288 289 289 288 288 288 289 288 288 286
290 288 285 285 283 283 283 285 293 291 292 291 292 293 293 293 294 295 296 295 295 294 294 294 293 291 291 290 290 289 289 288 287 287 287 287 287 287 287 288 287 287 288 288 289 288 288 287 285
288 288 287 283 282 283 282 283 291 291 290 291 291 292 292 293 294 295 296 296 295 294 293 293 292 290 290 290 289 289 289 288 287 287 287 286 286 286 287 287 287 287 287 287 288 287 287 288 287
287 285 290 283 278 284 286 289 293 290 290 290 291 292 293 293 294 294 296 296 295 294 293 293 292 290 290 289 289 288 288 287 287 287 287 286 287 286 286 286 286 286 286 286 287 286 286 287 287
288 289 284 286 280 280 284 284 290 288 289 290 291 293 294 293 293 294 295 296 295 295 294 293 292 290 290 289 289 288 287 287 287 287 286 286 286 285 285 285 285 285 285 285 286 286 286 286 286
285 285 285 287 286 283 282 288 291 290 290 291 292 293 294 295 294 295 295 295 295 295 294 292 291 290 289 289 288 287 287 287 287 286 285 285 285 285 284 284 284 284 284 285 285 285 285 285 285
286 286 288 286 280 282 283 289 291 290 291 292 294 294 295 294 295 295 295 295 294 294 293 292 291 290 289 289 288 287 286 286 286 285 285 285 284 284 284 284 283 283 283 283 284 283 284 284 284
Wind_Speed
3 1 2 4 5 3 5 5 3 3 4 2 1 2 4 5 3 3 5 6 7 8 10 11 15 15 15 14 15 16 16 17 16 17 17 18 18 17 17 17 17 17 17 18 17 18 18 19 19
4 2 3 1 4 4 6 3 7 3 6 8 5 2 2 4 4 5 4 5 7 8 9 10 14 14 14 14 15 15 15 15 15 15 16 16 17 17 17 17 18 18 18 18 18 17 17 18 19
2 3 3 1 1 1 3 5 6 9 4 2 3 3 2 4 4 3 4 4 6 8 9 10 13 14 14 15 15 14 14 14 15 15 17 17 17 17 17 18 18 18 18 19 19 19 19 19 19
2 3 3 3 4 2 2 8 5 8 4 3 3 4 4 6 2 4 5 6 7 8 9 11 14 13 13 13 13 14 15 14 16 16 16 18 17 16 16 16 17 17 17 17 18 20 19 19 20
0 2 2 3 3 2 2 4 9 5 3 4 2 4 4 4 7 5 6 5 6 7 8 8 12 12 13 13 15 14 14 15 15 15 16 15 15 15 15 16 17 17 17 18 18 18 18 19 20
2 2 4 4 4 1 5 6 6 3 2 3 1 5 4 7 6 4 3 5 6 7 7 8 8 11 12 12 15 14 12 13 13 14 15 14 15 15 17 17 18 19 19 19 18 17 18 19 19
1 2 3 4 6 5 4 7 5 5 6 4 3 3 5 8 5 5 3 4 6 7 8 7 8 9 9 12 12 10 11 11 12 13 13 12 12 15 17 18 20 21 20 19 20 19 19 20 19
2 2 5 2 5 3 7 7 1 3 3 4 1 1 3 8 10 6 2 5 6 7 8 8 8 7 6 6 8 9 11 12 12 12 15 12 11 15 17 19 21 21 20 20 20 19 20 21 21
1 3 4 5 5 4 7 6 2 1 3 2 1 1 4 11 9 5 2 3 5 6 8 7 7 6 6 6 5 6 9 10 13 14 14 10 10 13 15 17 20 19 20 19 19 19 19 19 16
1 4 3 1 3 4 8 5 7 4 5 5 4 4 7 9 6 4 1 4 5 7 7 7 7 7 6 5 7 7 8 8 10 11 12 10 11 11 12 10 15 17 19 16 19 18 17 14 9
2 1 4 4 3 2 8 6 5 5 6 6 7 12 11 8 6 3 3 4 5 5 6 7 6 6 7 6 5 5 5 6 7 12 12 10 8 9 9 7 8 9 13 10 13 12 10 12 10
4 3 2 3 3 4 6 5 4 8 1 4 3 9 12 10 6 4 3 3 4 5 5 6 6 6 7 5 6 6 6 7 7 10 14 10 7 9 9 7 9 9 8 11 10 8 11 13 13
3 5 4 4 3 2 4 4 3 7 5 2 5 10 11 9 7 5 4 3 3 3 3 5 6 6 6 7 5 6 7 7 8 9 12 10 9 9 8 9 8 9 9 9 10 10 10 12 14
4 6 6 2 3 3 3 2 2 2 3 6 9 10 10 10 8 6 4 4 3 2 2 4 6 6 7 7 9 7 7 8 8 8 10 12 9 9 8 9 9 9 10 10 10 10 9 9 10
7 5 3 3 2 1 2 6 8 1 4 7 9 9 9 9 7 6 4 4 3 3 3 4 6 6 7 8 8 7 7 7 7 8 11 12 11 10 10 9 9 10 10 11 10 10 9 8 9
4 2 5 3 4 1 4 5 3 1 7 9 10 10 10 11 9 6 6 5 5 5 5 5 4 6 7 8 6 6 6 7 7 7 8 12 12 12 10 9 9 10 9 9 10 10 8 8 9
1 4 7 3 2 1 4 4 2 2 7 9 11 12 13 12 10 9 8 6 5 5 6 6 6 7 7 7 6 7 8 7 7 7 8 11 11 12 9 9 9 10 8 9 9 10 9 6 7
7 5 3 4 4 3 3 15 9 6 8 12 12 14 15 13 14 11 10 7 6 6 6 6 5 6 6 5 5 5 6 6 7 8 8 11 10 12 10 9 10 10 9 9 9 11 10 9 6
4 3 4 3 2 4 7 14 16 11 13 16 16 13 12 15 12 12 11 9 7 6 6 6 7 5 3 1 1 3 5 5 7 7 11 11 11 12 11 8 10 9 11 12 12 9 11 12 11
4 3 3 2 1 4 1 14 17 15 12 10 11 13 15 14 14 15 13 12 10 8 6 6 6 5 3 2 3 3 4 6 6 6 9 11 11 12 10 10 10 11 9 14 14 15 10 10 13
4 8 5 1 4 1 6 6 5 1 3 2 6 9 11 17 19 18 17 15 12 10 8 7 6 6 5 6 5 4 5 4 4 7 7 10 11 11 12 11 10 10 10 9 12 12 14 9 11
7 4 5 8 5 3 4 4 6 2 5 4 5 3 6 10 13 16 18 16 13 10 8 7 7 7 5 4 3 3 4 5 3 4 5 6 9 10 10 10 11 11 9 11 10 10 11 9 10
3 5 6 3 3 2 3 4 7 2 3 4 5 8 6 5 10 16 17 15 12 10 9 7 7 6 6 5 6 6 8 7 4 4 4 5 7 9 9 9 9 9 8 10 12 11 11 9 9
14 8 6 3 2 3 3 4 4 2 3 9 8 9 6 3 8 10 13 12 11 9 8 7 8 7 6 6 7 7 9 8 5 5 3 4 5 6 8 8 8 8 8 10 9 10 12 10 9
3 7 3 3 3 2 2 4 4 3 6 6 10 10 7 1 7 11 14 14 13 12 11 9 9 8 7 7 7 8 7 7 7 5 3 4 4 5 7 7 7 7 8 8 8 10 10 10 8
9 3 4 6 5 4 2 6 2 2 1 2 3 4 3 1 5 9 13 14 14 14 13 11 10 9 8 8 8 7 7 4 5 4 4 4 4 4 5 6 6 7 7 8 8 8 7 7 7
7 6 3 7 2 1 4 5 3 4 4 1 3 3 3 2 5 9 12 14 14 13 13 12 11 10 10 9 8 8 7 7 6 6 5 4 4 4 5 5 6 7 7 8 8 7 7 7 7
3 4 5 1 6 5 4 5 4 8 4 5 2 4 4 4 5 7 10 13 12 12 11 10 9 10 10 9 8 7 7 8 7 6 7 7 5 5 5 5 6 7 7 7 7 7 7 7 6
5 4 1 1 1 3 4 3 2 8 9 7 2 4 5 6 6 8 10 12 13 12 12 12 11 11 11 10 9 8 8 8 7 6 6 7 6 5 5 5 6 6 6 6 7 9 7 7 7
3 3 6 4 6 0 1 2 3 5 6 3 6 8 7 6 5 7 10 12 14 14 14 14 12 12 11 10 9 9 8 9 8 7 7 7 7 5 5 5 5 6 6 6 7 8 7 6 8
Wind_Direction
330 353 223 221 225 211 122 118 99 133 133 44 134 272 66 30 9 14 107 38 9 4 357 353 356 358 358 358 1 1 359 2 360 355 358 356 355 352 349 347 343 338 334 329 325 325 323 317 319
336 269 223 223 261 228 116 133 157 104 108 117 104 95 74 90 62 101 180 30 10 3 360 355 355 356 359 1 2 2 1 359 357 358 357 357 355 354 352 350 346 342 337 333 329 325 322 323 317
270 309 264 70 64 135 99 141 124 126 126 219 104 28 106 89 96 74 55 18 2 9 6 3 359 360 2 6 5 5 0 359 359 354 357 356 357 356 352 351 348 345 341 336 336 330 327 323 316
249 177 135 274 87 79 32 140 152 138 123 130 134 100 93 38 41 59 67 20 8 5 4 8 360 2 5 9 6 6 3 3 3 1 4 4 3 358 356 351 350 344 343 341 339 334 326 321 321
52 225 150 108 103 121 145 135 162 146 109 107 248 112 101 94 100 89 60 23 5 11 9 3 2 7 12 8 9 6 6 9 8 9 5 3 359 358 358 1 351 355 352 346 344 338 333 328 319
180 280 196 165 129 135 147 163 166 152 95 128 146 149 118 131 150 103 71 35 20 12 8 5 14 12 12 10 9 3 10 13 13 12 10 7 7 6 4 3 359 1 359 357 349 346 340 335 326
268 241 86 122 126 168 175 164 205 168 157 150 125 176 102 176 149 131 95 51 35 19 17 13 13 7 12 17 6 4 8 17 21 17 9 7 13 12 13 9 4 0 357 354 354 350 341 336 328
112 99 138 167 176 133 144 167 295 209 126 117 334 168 140 167 154 150 110 48 38 28 19 18 11 6 1 0 26 15 20 15 12 11 10 7 10 14 13 8 359 356 358 357 353 345 338 329 323
255 190 175 164 176 124 146 186 115 70 142 173 88 8 65 129 151 182 199 31 27 29 22 15 9 8 8 18 26 17 21 16 13 10 10 4 13 12 4 360 359 355 354 353 354 355 349 340 322
247 228 141 72 126 133 167 203 165 194 177 197 185 122 138 153 174 180 53 25 28 25 23 14 12 12 13 17 16 18 19 20 20 14 11 13 13 12 357 2 1 347 347 350 355 353 358 346 339
62 260 130 131 110 98 160 192 170 210 220 223 212 175 168 167 164 148 83 46 24 24 24 20 21 22 23 34 22 25 26 18 17 19 14 10 12 10 5 356 357 351 357 0 354 3 11 355 357
140 87 44 118 138 150 169 132 201 223 42 44 166 161 162 173 169 145 113 71 41 36 28 21 25 34 42 45 43 34 31 23 22 17 15 9 10 8 5 4 359 357 358 354 349 1 8 10 10
123 138 92 98 128 62 145 193 255 239 211 93 131 157 171 169 154 140 123 100 71 54 49 40 43 48 46 46 46 44 38 31 24 22 18 11 6 3 2 4 5 2 357 359 359 3 12 19 15
100 116 107 120 121 116 260 208 264 108 159 152 163 169 173 177 172 155 156 118 96 96 99 72 64 58 58 58 53 47 41 30 26 26 17 12 2 1 5 6 7 4 3 358 6 9 17 28 45
125 117 137 138 147 108 289 232 227 81 171 184 186 180 181 184 176 185 149 139 135 141 145 111 76 66 66 64 58 52 42 37 31 21 21 15 14 6 10 15 12 6 4 5 14 17 37 28 51
133 185 199 125 180 100 250 262 160 233 204 205 195 194 196 195 194 173 165 153 152 155 153 130 111 91 78 76 67 61 49 44 36 27 21 17 17 14 19 18 16 6 14 14 19 18 29 40 63
177 201 211 159 186 154 235 279 116 192 214 229 214 207 206 200 194 186 179 167 161 159 158 149 134 113 98 84 77 69 60 54 44 33 24 17 19 17 23 22 15 13 19 21 18 28 22 30 24
173 197 187 198 153 213 220 261 252 221 223 237 227 218 213 208 204 187 180 171 166 166 168 159 150 130 117 104 90 79 66 59 49 37 26 22 20 21 19 25 20 21 25 27 23 31 34 24 2
128 132 145 117 136 217 244 276 278 260 239 243 235 231 221 218 200 183 180 175 175 176 176 174 164 151 170 166 111 85 54 51 50 39 28 27 26 21 22 27 26 26 29 21 25 24 29 30 8
150 157 179 95 113 241 295 281 278 259 246 267 265 240 230 212 196 187 181 181 189 179 176 169 158 155 156 131 86 72 83 64 49 41 34 30 30 27 28 25 30 32 36 30 24 23 20 33 28
205 226 184 336 151 182 291 258 285 288 119 221 245 255 236 216 203 189 185 187 183 183 178 169 154 143 130 120 116 108 108 96 58 35 29 28 30 28 29 29 34 40 42 40 35 28 27 29 32
215 191 146 140 206 267 334 302 279 321 338 78 75 1 266 225 212 196 187 185 183 179 166 158 145 133 124 158 154 132 91 92 72 61 47 48 40 41 35 34 34 41 44 45 42 39 37 31 34
113 132 123 127 132 256 161 231 269 55 115 8 347 7 358 236 209 197 191 182 176 166 168 158 144 124 114 118 119 119 110 110 115 90 84 74 63 50 44 40 48 49 47 49 46 44 45 42 57
140 107 79 79 127 232 119 256 270 341 307 316 339 350 354 170 189 191 184 168 166 162 165 162 150 127 126 124 120 120 130 133 131 114 107 74 68 61 43 47 50 51 52 51 50 50 50 53 60
175 163 149 193 190 252 43 224 312 301 324 319 329 337 353 90 169 174 175 176 169 170 171 166 159 144 139 132 127 128 128 123 119 118 106 93 75 61 46 44 50 56 56 58 57 61 57 57 66
182 235 198 203 189 142 52 230 171 263 293 306 295 316 328 196 191 188 186 181 174 176 177 173 165 152 150 144 136 130 128 117 107 106 104 90 83 69 58 58 63 67 63 64 62 64 61 62 71
159 205 67 104 20 209 185 256 238 153 139 132 33 325 325 251 211 199 189 187 181 182 181 178 168 160 157 152 147 146 145 139 136 127 118 106 100 87 72 64 72 74 70 70 70 65 62 61 59
303 124 138 203 166 209 193 270 226 199 117 107 46 359 329 264 222 205 197 192 188 184 179 179 176 168 164 161 158 155 150 141 139 141 133 125 113 102 90 85 79 76 72 72 74 75 59 63 59
155 178 95 96 328 175 170 220 191 158 150 135 355 323 306 285 236 209 199 195 189 182 181 180 178 172 172 173 167 161 155 146 145 139 134 134 127 116 98 93 89 84 80 76 77 74 66 61 65
329 186 184 190 180 130 326 171 166 135 160 166 350 326 316 285 251 215 203 194 190 188 185 185 183 182 181 176 168 167 159 156 153 152 144 144 128 118 114 108 97 88 82 78 78 78 65 56 59